Location: �clusier
(49.9361°N, 2.7869°E)
Time: 07:21:25
(UTC+00:00)

ALOS 2 - Pass Details

Date: 16 June 2021
Orbit: 630 x 632 km, 97.9° (Epoch: 31 July)

Event Time Altitude Azimuth Distance (km) Brightness Sun altitude
Exits shadow 22:11:55 14° 118° (ESE) 1,772 4.4 -13.5°
Maximum altitude 22:14:57 28° 65° (ENE) 1,184 4.0 -13.7°
Drops below altitude 10° 22:18:43 10° 6° (N) 2,027 6.2 -14.0°
Sets 22:21:08 0° 355° (N) 2,940 7.6 -14.1°
